{"data":{"norad_id":57498,"epoch":"2026-09-20T07:36:12.199104Z","epoch_age_seconds":143797,"freshness":"FRESH","line1":"1 57498U 23113D   26263.31680786 -.00000350  00000+0 -31757-5 0  9998","line2":"2 57498  43.0063 356.6871 0001914 268.8422  91.2210 15.27574367173467","mean_motion":15.27574367,"eccentricity":0.0001914,"inclination_deg":43.0063,"raan_deg":356.6871,"arg_perigee_deg":268.8422,"mean_anomaly_deg":91.221,"bstar":-3.1757e-6,"rev_number":17346,"period_min":94.267096326578,"perigee_km":481.75272907277,"apogee_km":484.37919756713,"semimajor_km":6861.2029633199,"source":"CELESTRAK","updated_at":"2026-09-21T09:00:33.632641Z"}}